Time,TemperatureF,DewpointF,PressureIn,WindDirection,WindDirectionDegrees,WindSpeedMPH,WindSpeedGustMPH,Humidity,HourlyPrecipIn,Conditions,Clouds,dailyrainin,SoftwareType,DateUTC
2013-03-17 00:02:00,35.0,33.0,-100.00,NNE,25,0.0,0.0,91,-99.99,,,-99.99,,2013-03-17 05:02:00,
2013-03-17 00:12:00,35.0,33.0,-100.00,North,5,0.0,0.0,91,-99.99,,,-99.99,,2013-03-17 05:12:00,
2013-03-17 00:22:00,35.0,33.0,-100.00,NNE,15,0.0,0.0,92,-99.99,,,-99.99,,2013-03-17 05:22:00,
2013-03-17 00:32:00,35.0,33.0,-100.00,NNE,15,0.0,0.0,92,-99.99,,,-99.99,,2013-03-17 05:32:00,
2013-03-17 00:42:00,35.0,33.0,-100.00,NNE,25,0.0,0.0,92,-99.99,,,-99.99,,2013-03-17 05:42:00,
2013-03-17 00:52:00,35.0,32.0,-100.00,NNE,15,0.0,0.0,91,-99.99,,,-99.99,,2013-03-17 05:52:00,
2013-03-17 01:02:00,35.0,32.0,-100.00,NNE,15,0.0,0.0,91,-99.99,,,-99.99,,2013-03-17 06:02:00,
2013-03-17 01:12:00,34.0,32.0,-100.00,NNE,25,0.0,0.0,90,-99.99,,,-99.99,,2013-03-17 06:12:00,
2013-03-17 01:22:00,34.0,32.0,-100.00,North,5,0.0,0.0,90,-99.99,,,-99.99,,2013-03-17 06:22:00,
2013-03-17 01:32:00,34.0,32.0,-100.00,North,5,0.0,0.0,90,-99.99,,,-99.99,,2013-03-17 06:32:00,
2013-03-17 01:42:00,34.0,31.0,-100.00,NNE,20,0.0,0.0,90,-99.99,,,-99.99,,2013-03-17 06:42:00,
2013-03-17 01:52:00,34.0,31.0,-100.00,NNE,20,0.0,0.0,90,-99.99,,,-99.99,,2013-03-17 06:52:00,
2013-03-17 02:02:00,34.0,31.0,-100.00,NNE,20,0.0,0.0,90,-99.99,,,-99.99,,2013-03-17 07:02:00,
2013-03-17 02:12:00,34.0,31.0,-100.00,NNE,20,0.0,0.0,91,-99.99,,,-99.99,,2013-03-17 07:12:00,
2013-03-17 02:22:00,33.0,31.0,-100.00,North,10,0.0,0.0,92,-99.99,,,-99.99,,2013-03-17 07:22:00,
2013-03-17 02:32:00,33.0,31.0,-100.00,North,10,0.0,0.0,92,-99.99,,,-99.99,,2013-03-17 07:32:00,
2013-03-17 02:42:00,33.0,31.0,-100.00,NNE,30,0.0,0.0,92,-99.99,,,-99.99,,2013-03-17 07:42:00,
2013-03-17 02:52:00,33.0,31.0,-100.00,NNE,15,0.0,0.0,92,-99.99,,,-99.99,,2013-03-17 07:52:00,
2013-03-17 03:03:00,33.0,31.0,-100.00,NNE,15,0.0,0.0,92,-99.99,,,-99.99,,2013-03-17 08:03:00,
2013-03-17 03:13:00,33.0,30.0,-100.00,NNE,25,0.0,0.0,92,-99.99,,,-99.99,,2013-03-17 08:13:00,
2013-03-17 03:22:00,33.0,30.0,-100.00,NE,40,0.0,0.0,92,-99.99,,,-99.99,,2013-03-17 08:22:00,
2013-03-17 03:32:00,33.0,30.0,-100.00,NE,40,0.0,0.0,92,-99.99,,,-99.99,,2013-03-17 08:32:00,
2013-03-17 03:42:00,32.0,29.0,-100.00,NE,40,0.0,0.0,89,-99.99,,,-99.99,,2013-03-17 08:42:00,
2013-03-17 03:52:00,32.0,29.0,-100.00,NNE,30,0.0,0.0,88,-99.99,,,-99.99,,2013-03-17 08:52:00,
2013-03-17 04:03:00,32.0,29.0,-100.00,NNE,30,0.0,0.0,88,-99.99,,,-99.99,,2013-03-17 09:03:00,
2013-03-17 04:12:00,32.0,29.0,-100.00,NNE,30,0.0,0.0,89,-99.99,,,-99.99,,2013-03-17 09:12:00,
2013-03-17 04:22:00,32.0,29.0,-100.00,NE,35,0.0,0.0,88,-99.99,,,-99.99,,2013-03-17 09:22:00,
2013-03-17 04:32:00,32.0,29.0,-100.00,NE,35,0.0,0.0,88,-99.99,,,-99.99,,2013-03-17 09:32:00,
2013-03-17 04:43:00,32.0,29.0,-100.00,NNE,20,0.0,0.0,88,-99.99,,,-99.99,,2013-03-17 09:43:00,
2013-03-17 04:53:00,31.0,28.0,-100.00,NE,40,0.0,0.0,88,-99.99,,,-99.99,,2013-03-17 09:53:00,
2013-03-17 05:03:00,31.0,28.0,-100.00,NE,40,0.0,0.0,88,-99.99,,,-99.99,,2013-03-17 10:03:00,
2013-03-17 05:13:00,31.0,28.0,-100.00,NE,40,0.0,0.0,87,-99.99,,,-99.99,,2013-03-17 10:13:00,
2013-03-17 05:23:00,31.0,28.0,-100.00,NE,50,0.0,0.0,87,-99.99,,,-99.99,,2013-03-17 10:23:00,
2013-03-17 05:33:00,31.0,28.0,-100.00,NE,50,0.0,0.0,87,-99.99,,,-99.99,,2013-03-17 10:33:00,
2013-03-17 05:42:00,31.0,28.0,-100.00,NE,55,0.0,0.0,88,-99.99,,,-99.99,,2013-03-17 10:42:00,
2013-03-17 05:52:00,31.0,28.0,-100.00,ENE,65,0.0,0.0,87,-99.99,,,-99.99,,2013-03-17 10:52:00,
2013-03-17 06:02:00,31.0,28.0,-100.00,ENE,65,0.0,0.0,87,-99.99,,,-99.99,,2013-03-17 11:02:00,
2013-03-17 06:12:00,31.0,28.0,-100.00,NE,55,0.0,0.0,87,-99.99,,,-99.99,,2013-03-17 11:12:00,
2013-03-17 06:22:00,31.0,28.0,-100.00,ENE,60,0.0,0.0,87,-99.99,,,-99.99,,2013-03-17 11:22:00,
2013-03-17 06:32:00,31.0,28.0,-100.00,ENE,60,0.0,0.0,87,-99.99,,,-99.99,,2013-03-17 11:32:00,
2013-03-17 06:42:00,31.0,27.0,-100.00,ENE,60,0.0,0.0,87,-99.99,,,-99.99,,2013-03-17 11:42:00,
2013-03-17 06:52:00,31.0,27.0,-100.00,NE,55,0.0,0.0,87,-99.99,,,-99.99,,2013-03-17 11:52:00,
2013-03-17 07:02:00,31.0,27.0,-100.00,NE,55,0.0,0.0,87,-99.99,,,-99.99,,2013-03-17 12:02:00,
2013-03-17 07:12:00,31.0,28.0,-100.00,ENE,65,0.0,0.0,88,-99.99,,,-99.99,,2013-03-17 12:12:00,
2013-03-17 07:22:00,31.0,28.0,-100.00,ENE,60,0.0,0.0,89,-99.99,,,-99.99,,2013-03-17 12:22:00,
2013-03-17 07:32:00,31.0,28.0,-100.00,ENE,60,0.0,0.0,89,-99.99,,,-99.99,,2013-03-17 12:32:00,
2013-03-17 07:43:00,31.0,28.0,-100.00,ENE,60,0.0,0.0,90,-99.99,,,-99.99,,2013-03-17 12:43:00,
2013-03-17 07:52:00,31.0,28.0,-100.00,ENE,75,0.0,0.0,90,-99.99,,,-99.99,,2013-03-17 12:52:00,
2013-03-17 08:02:00,31.0,28.0,-100.00,ENE,75,0.0,0.0,90,-99.99,,,-99.99,,2013-03-17 13:02:00,
2013-03-17 08:12:00,31.0,28.0,-100.00,ENE,75,0.0,0.0,90,-99.99,,,-99.99,,2013-03-17 13:12:00,
2013-03-17 08:22:00,31.0,29.0,-100.00,ENE,65,0.0,0.0,91,-99.99,,,-99.99,,2013-03-17 13:22:00,
2013-03-17 08:32:00,31.0,29.0,-100.00,ENE,65,0.0,0.0,91,-99.99,,,-99.99,,2013-03-17 13:32:00,
2013-03-17 08:42:00,31.0,28.0,-100.00,East,85,0.0,0.0,90,-99.99,,,-99.99,,2013-03-17 13:42:00,
2013-03-17 08:52:00,31.0,28.0,-100.00,ENE,70,0.0,0.0,88,-99.99,,,-99.99,,2013-03-17 13:52:00,
2013-03-17 09:02:00,31.0,28.0,-100.00,ENE,70,0.0,0.0,88,-99.99,,,-99.99,,2013-03-17 14:02:00,
2013-03-17 09:12:00,31.0,28.0,-100.00,ENE,65,0.0,0.0,87,-99.99,,,-99.99,,2013-03-17 14:12:00,
2013-03-17 09:22:00,31.0,28.0,-100.00,East,85,0.0,0.0,87,-99.99,,,-99.99,,2013-03-17 14:22:00,
2013-03-17 09:32:00,31.0,28.0,-100.00,East,85,0.0,0.0,87,-99.99,,,-99.99,,2013-03-17 14:32:00,
2013-03-17 09:42:00,31.0,28.0,-100.00,East,80,0.0,0.0,87,-99.99,,,-99.99,,2013-03-17 14:42:00,
2013-03-17 09:53:00,31.0,28.0,-100.00,ENE,75,0.0,0.0,87,-99.99,,,-99.99,,2013-03-17 14:53:00,
2013-03-17 10:02:00,31.0,28.0,-100.00,ENE,75,0.0,0.0,87,-99.99,,,-99.99,,2013-03-17 15:02:00,
2013-03-17 10:12:00,31.0,28.0,-100.00,ENE,70,0.0,0.0,86,-99.99,,,-99.99,,2013-03-17 15:12:00,
2013-03-17 10:23:00,31.0,28.0,-100.00,East,80,0.0,0.0,86,-99.99,,,-99.99,,2013-03-17 15:23:00,
2013-03-17 10:33:00,31.0,28.0,-100.00,East,80,0.0,0.0,86,-99.99,,,-99.99,,2013-03-17 15:33:00,
2013-03-17 10:42:00,32.0,28.0,-100.00,East,85,0.0,0.0,84,-99.99,,,-99.99,,2013-03-17 15:42:00,
2013-03-17 10:53:00,33.0,27.0,-100.00,East,95,0.0,0.0,80,-99.99,,,-99.99,,2013-03-17 15:53:00,
2013-03-17 11:03:00,33.0,27.0,-100.00,East,95,0.0,0.0,80,-99.99,,,-99.99,,2013-03-17 16:03:00,
2013-03-17 11:12:00,33.0,27.0,-100.00,East,85,0.0,0.0,79,-99.99,,,-99.99,,2013-03-17 16:12:00,
2013-03-17 11:23:00,34.0,28.0,-100.00,East,95,0.0,0.0,78,-99.99,,,-99.99,,2013-03-17 16:23:00,
2013-03-17 11:33:00,34.0,28.0,-100.00,East,95,0.0,0.0,78,-99.99,,,-99.99,,2013-03-17 16:33:00,
2013-03-17 11:42:00,34.0,27.0,-100.00,ESE,105,0.0,0.0,77,-99.99,,,-99.99,,2013-03-17 16:42:00,
2013-03-17 11:52:00,34.0,28.0,-100.00,ESE,115,0.0,0.0,78,-99.99,,,-99.99,,2013-03-17 16:52:00,
2013-03-17 12:02:00,34.0,28.0,-100.00,ESE,115,0.0,0.0,78,-99.99,,,-99.99,,2013-03-17 17:02:00,
2013-03-17 12:12:00,35.0,28.0,-100.00,East,100,0.0,0.0,77,-99.99,,,-99.99,,2013-03-17 17:12:00,
2013-03-17 12:22:00,35.0,28.0,-100.00,East,100,0.0,0.0,76,-99.99,,,-99.99,,2013-03-17 17:22:00,
2013-03-17 12:33:00,35.0,28.0,-100.00,East,100,0.0,0.0,76,-99.99,,,-99.99,,2013-03-17 17:33:00,
2013-03-17 12:42:00,35.0,28.0,-100.00,East,100,0.0,0.0,75,-99.99,,,-99.99,,2013-03-17 17:42:00,
2013-03-17 12:53:00,36.0,29.0,-100.00,East,90,0.0,0.0,75,-99.99,,,-99.99,,2013-03-17 17:53:00,
2013-03-17 13:02:00,36.0,29.0,-100.00,East,90,0.0,0.0,75,-99.99,,,-99.99,,2013-03-17 18:02:00,
2013-03-17 13:12:00,36.0,28.0,-100.00,ESE,110,0.0,0.0,73,-99.99,,,-99.99,,2013-03-17 18:12:00,
2013-03-17 13:22:00,37.0,29.0,-100.00,NE,55,0.0,0.0,71,-99.99,,,-99.99,,2013-03-17 18:22:00,
2013-03-17 13:32:00,37.0,29.0,-100.00,NE,55,0.0,0.0,71,-99.99,,,-99.99,,2013-03-17 18:32:00,
2013-03-17 13:42:00,37.0,28.0,-100.00,East,90,0.0,0.0,71,-99.99,,,-99.99,,2013-03-17 18:42:00,
2013-03-17 13:52:00,37.0,29.0,-100.00,East,100,0.0,0.0,72,-99.99,,,-99.99,,2013-03-17 18:52:00,
2013-03-17 14:02:00,37.0,29.0,-100.00,East,100,0.0,0.0,72,-99.99,,,-99.99,,2013-03-17 19:02:00,
2013-03-17 14:12:00,37.0,29.0,-100.00,ESE,110,0.0,0.0,71,-99.99,,,-99.99,,2013-03-17 19:12:00,
2013-03-17 14:22:00,37.0,29.0,-100.00,East,95,0.0,0.0,71,-99.99,,,-99.99,,2013-03-17 19:22:00,
2013-03-17 14:33:00,37.0,29.0,-100.00,East,95,0.0,0.0,71,-99.99,,,-99.99,,2013-03-17 19:33:00,
2013-03-17 14:42:00,37.0,29.0,-100.00,East,95,0.0,0.0,71,-99.99,,,-99.99,,2013-03-17 19:42:00,
2013-03-17 14:53:00,38.0,29.0,-100.00,East,85,0.0,0.0,71,-99.99,,,-99.99,,2013-03-17 19:53:00,
2013-03-17 15:02:00,38.0,29.0,-100.00,East,85,0.0,0.0,71,-99.99,,,-99.99,,2013-03-17 20:02:00,
2013-03-17 15:12:00,38.0,29.0,-100.00,East,85,0.0,0.0,71,-99.99,,,-99.99,,2013-03-17 20:12:00,
2013-03-17 15:22:00,38.0,30.0,-100.00,ESE,110,0.0,0.0,71,-99.99,,,-99.99,,2013-03-17 20:22:00,
2013-03-17 15:33:00,38.0,30.0,-100.00,ESE,110,0.0,0.0,71,-99.99,,,-99.99,,2013-03-17 20:33:00,
2013-03-17 15:42:00,38.0,29.0,-100.00,East,80,0.0,0.0,70,-99.99,,,-99.99,,2013-03-17 20:42:00,
2013-03-17 15:52:00,38.0,29.0,-100.00,East,85,0.0,0.0,70,-99.99,,,-99.99,,2013-03-17 20:52:00,
2013-03-17 16:03:00,38.0,29.0,-100.00,East,85,0.0,0.0,70,-99.99,,,-99.99,,2013-03-17 21:03:00,
2013-03-17 16:12:00,38.0,29.0,-100.00,East,100,0.0,0.0,70,-99.99,,,-99.99,,2013-03-17 21:12:00,
2013-03-17 16:22:00,38.0,29.0,-100.00,SE,130,0.0,0.0,70,-99.99,,,-99.99,,2013-03-17 21:22:00,
2013-03-17 16:33:00,38.0,29.0,-100.00,SE,130,0.0,0.0,70,-99.99,,,-99.99,,2013-03-17 21:33:00,
2013-03-17 16:43:00,39.0,29.0,-100.00,ESE,105,0.0,0.0,67,-99.99,,,-99.99,,2013-03-17 21:43:00,
2013-03-17 16:52:00,39.0,29.0,-100.00,East,100,0.0,0.0,67,-99.99,,,-99.99,,2013-03-17 21:52:00,
2013-03-17 17:03:00,39.0,29.0,-100.00,East,100,0.0,0.0,67,-99.99,,,-99.99,,2013-03-17 22:03:00,
2013-03-17 17:12:00,39.0,29.0,-100.00,ESE,115,0.0,0.0,67,-99.99,,,-99.99,,2013-03-17 22:12:00,
2013-03-17 17:23:00,39.0,29.0,-100.00,East,100,0.0,0.0,67,-99.99,,,-99.99,,2013-03-17 22:23:00,
2013-03-17 17:33:00,39.0,29.0,-100.00,East,100,0.0,0.0,67,-99.99,,,-99.99,,2013-03-17 22:33:00,
2013-03-17 17:42:00,40.0,30.0,-100.00,East,95,0.0,0.0,68,-99.99,,,-99.99,,2013-03-17 22:42:00,
2013-03-17 17:53:00,39.0,30.0,-100.00,ESE,110,0.0,0.0,69,-99.99,,,-99.99,,2013-03-17 22:53:00,
2013-03-17 18:02:00,39.0,30.0,-100.00,ESE,110,0.0,0.0,69,-99.99,,,-99.99,,2013-03-17 23:02:00,
2013-03-17 18:12:00,39.0,30.0,-100.00,East,100,0.0,0.0,69,-99.99,,,-99.99,,2013-03-17 23:12:00,
2013-03-17 18:22:00,38.0,29.0,-100.00,East,85,0.0,0.0,69,-99.99,,,-99.99,,2013-03-17 23:22:00,
2013-03-17 18:33:00,38.0,29.0,-100.00,East,85,0.0,0.0,69,-99.99,,,-99.99,,2013-03-17 23:33:00,
2013-03-17 18:42:00,38.0,29.0,-100.00,East,85,0.0,0.0,69,-99.99,,,-99.99,,2013-03-17 23:42:00,
2013-03-17 18:53:00,38.0,29.0,-100.00,East,100,0.0,0.0,70,-99.99,,,-99.99,,2013-03-17 23:53:00,
2013-03-17 19:03:00,38.0,29.0,-100.00,East,100,0.0,0.0,70,-99.99,,,-99.99,,2013-03-18 00:03:00,
2013-03-17 19:12:00,38.0,29.0,-100.00,East,100,0.0,0.0,71,-99.99,,,-99.99,,2013-03-18 00:12:00,
2013-03-17 19:22:00,38.0,29.0,-100.00,ESE,110,0.0,0.0,72,-99.99,,,-99.99,,2013-03-18 00:22:00,
2013-03-17 19:33:00,38.0,29.0,-100.00,ESE,110,0.0,0.0,72,-99.99,,,-99.99,,2013-03-18 00:33:00,
2013-03-17 19:42:00,38.0,29.0,-100.00,ESE,110,0.0,0.0,72,-99.99,,,-99.99,,2013-03-18 00:42:00,
2013-03-17 19:53:00,37.0,30.0,-100.00,East,95,0.0,0.0,75,-99.99,,,-99.99,,2013-03-18 00:53:00,
2013-03-17 20:02:00,37.0,30.0,-100.00,East,95,0.0,0.0,75,-99.99,,,-99.99,,2013-03-18 01:02:00,
2013-03-17 20:12:00,37.0,31.0,-100.00,East,100,0.0,0.0,77,-99.99,,,-99.99,,2013-03-18 01:12:00,
2013-03-17 20:22:00,37.0,31.0,-100.00,East,90,0.0,0.0,77,-99.99,,,-99.99,,2013-03-18 01:22:00,
2013-03-17 20:32:00,37.0,31.0,-100.00,East,90,0.0,0.0,77,-99.99,,,-99.99,,2013-03-18 01:32:00,
2013-03-17 20:42:00,37.0,31.0,-100.00,East,95,0.0,0.0,78,-99.99,,,-99.99,,2013-03-18 01:42:00,
2013-03-17 20:52:00,37.0,31.0,-100.00,East,100,0.0,0.0,79,-99.99,,,-99.99,,2013-03-18 01:52:00,
2013-03-17 21:02:00,37.0,31.0,-100.00,East,100,0.0,0.0,79,-99.99,,,-99.99,,2013-03-18 02:02:00,
2013-03-17 21:12:00,36.0,31.0,-100.00,ESE,105,0.0,0.0,80,-99.99,,,-99.99,,2013-03-18 02:12:00,
2013-03-17 21:22:00,36.0,31.0,-100.00,East,100,0.0,0.0,80,-99.99,,,-99.99,,2013-03-18 02:22:00,
2013-03-17 21:32:00,36.0,31.0,-100.00,East,100,0.0,0.0,80,-99.99,,,-99.99,,2013-03-18 02:32:00,
2013-03-17 21:42:00,36.0,31.0,-100.00,East,90,0.0,0.0,81,-99.99,,,-99.99,,2013-03-18 02:42:00,
2013-03-17 21:52:00,36.0,31.0,-100.00,East,100,0.0,0.0,82,-99.99,,,-99.99,,2013-03-18 02:52:00,
2013-03-17 22:03:00,36.0,31.0,-100.00,East,100,0.0,0.0,82,-99.99,,,-99.99,,2013-03-18 03:03:00,
2013-03-17 22:11:00,36.0,31.0,-100.00,East,95,0.0,0.0,82,-99.99,,,-99.99,,2013-03-18 03:11:00,
2013-03-17 22:22:00,36.0,32.0,-100.00,East,85,0.0,0.0,84,-99.99,,,-99.99,,2013-03-18 03:22:00,
2013-03-17 22:33:00,36.0,32.0,-100.00,East,85,0.0,0.0,84,-99.99,,,-99.99,,2013-03-18 03:33:00,
2013-03-17 22:42:00,36.0,32.0,-100.00,ESE,105,0.0,0.0,87,-99.99,,,-99.99,,2013-03-18 03:42:00,
2013-03-17 22:53:00,35.0,32.0,-100.00,ESE,105,0.0,0.0,90,-99.99,,,-99.99,,2013-03-18 03:53:00,
2013-03-17 23:03:00,35.0,32.0,-100.00,ESE,105,0.0,0.0,90,-99.99,,,-99.99,,2013-03-18 04:03:00,
2013-03-17 23:13:00,35.0,33.0,-100.00,ESE,115,0.0,0.0,91,-99.99,,,-99.99,,2013-03-18 04:13:00,
2013-03-17 23:23:00,35.0,33.0,-100.00,East,100,0.0,0.0,93,-99.99,,,-99.99,,2013-03-18 04:23:00,
2013-03-17 23:33:00,35.0,33.0,-100.00,East,100,0.0,0.0,93,-99.99,,,-99.99,,2013-03-18 04:33:00,
2013-03-17 23:42:00,35.0,33.0,-100.00,East,100,0.0,0.0,94,-99.99,,,-99.99,,2013-03-18 04:42:00,
2013-03-17 23:53:00,35.0,34.0,-100.00,ESE,115,0.0,0.0,94,-99.99,,,-99.99,,2013-03-18 04:53:00,